Wetbulb
69.80 72.55 74.89 74.52 74.16 73.88 73.44 73.26 73.15 72.80 72.42 72.12 72.08 71.99 71.83 71.66 70.98 69.93 70.08 70.70 71.35 72.03 72.93 72.51 71.40 70.74 70.68 70.86 70.59 69.86 69.26 70.36 70.54 69.61 68.37 68.15 69.09 70.08 69.66 68.95 68.74 67.68 70.23
70.61 72.35 74.47 74.34 73.85 73.36 72.98 72.85 72.68 72.65 72.78 72.43 72.26 72.33 72.32 72.23 72.20 71.75 70.59 69.99 70.28 70.98 71.64 72.42 71.90 71.02 70.27 69.91 69.58 69.11 69.00 68.44 68.32 69.53 69.88 69.51 68.91 69.16 69.11 68.70 68.03 67.10 68.39
70.52 72.15 72.68 74.04 73.51 73.03 72.87 72.81 72.87 72.84 72.78 72.84 72.92 72.99 72.85 72.55 72.72 72.85 72.69 72.43 72.23 71.88 71.45 71.25 71.27 72.08 71.36 70.76 70.43 70.01 69.33 68.76 68.81 68.88 68.90 66.73 67.03 70.12 70.71 70.53 69.33 68.13 67.69
70.97 71.61 72.06 73.76 73.54 73.37 72.93 72.01 71.15 70.72 70.72 70.62 70.86 70.61 70.76 70.48 70.36 70.23 70.14 70.17 70.27 70.65 71.18 71.90 72.19 71.92 71.27 71.57 71.62 71.38 71.08 70.48 69.84 69.42 66.69 65.40 64.79 71.28 69.92 69.11 69.24 70.80 69.95
70.97 71.35 71.84 72.68 71.79 70.89 70.33 70.03 69.72 69.36 69.09 68.87 68.61 68.60 68.50 68.17 67.58 67.28 67.09 67.05 67.21 67.47 67.98 68.73 69.44 70.10 71.07 71.66 71.64 71.50 71.73 71.79 70.90 69.00 66.56 65.10 63.21 69.10 68.98 68.68 68.82 69.97 71.32
67.99 68.01 69.35 70.10 69.52 69.21 68.73 68.29 67.84 67.43 66.96 66.47 66.08 65.93 65.77 65.65 65.52 65.09 64.63 64.56 64.77 65.08 65.66 66.29 66.79 67.32 68.05 68.56 69.98 71.52 71.70 71.57 70.77 68.54 67.46 68.49 64.46 69.49 68.72 68.13 69.25 69.61 71.14
66.59 66.18 66.74 68.49 68.12 67.37 66.98 66.54 65.99 65.36 64.86 64.44 64.02 63.84 63.60 63.42 63.54 63.34 63.44 63.44 63.69 63.99 64.00 63.99 64.24 64.93 65.65 66.24 67.06 67.75 69.07 70.00 69.14 67.28 67.04 67.71 68.22 70.55 68.88 67.72 68.75 69.50 69.98
64.49 64.29 64.07 65.71 65.78 65.49 64.94 64.48 64.09 63.70 63.32 62.86 62.31 61.88 61.89 62.13 62.51 62.62 62.73 62.79 63.07 63.10 63.27 63.34 63.31 63.44 63.64 64.04 64.59 64.69 65.22 66.51 66.98 67.30 67.63 66.97 69.78 70.12 69.38 68.77 69.04 69.12 69.34
62.15 61.69 60.65 60.49 62.23 63.04 62.58 62.37 62.17 61.82 61.54 61.11 60.48 60.06 60.39 60.72 61.54 61.86 61.43 61.76 62.26 62.44 62.58 62.74 62.83 62.87 62.64 62.51 62.54 62.55 64.01 64.07 61.45 65.60 67.79 68.18 70.41 70.47 69.85 69.46 70.17 70.20 70.53
58.18 57.80 56.66 57.37 57.55 56.84 56.94 60.41 60.27 60.13 59.94 59.91 59.24 58.59 59.46 60.50 61.78 61.06 59.36 59.83 60.74 60.71 61.54 61.67 62.18 62.50 62.81 62.89 62.71 62.57 63.15 62.61 57.10 59.80 65.44 66.90 70.65 70.28 70.09 69.76 69.90 70.00 70.42
56.18 55.47 55.55 54.87 54.59 55.21 55.35 58.06 59.51 59.74 59.88 60.22 59.80 60.08 59.16 56.06 55.85 57.17 58.56 58.26 59.49 60.52 61.00 61.58 62.06 62.65 63.67 63.02 63.96 63.43 62.73 56.31 54.95 57.27 65.04 68.73 69.39 69.78 69.43 68.91 69.30 69.43 69.57
53.29 54.20 54.94 54.90 54.91 54.94 56.66 55.08 55.48 56.66 55.96 55.62 55.42 54.70 54.58 54.16 54.55 57.04 57.77 59.60 60.30 60.23 62.44 61.73 63.14 63.49 59.68 55.82 56.06 59.54 56.31 55.12 55.41 56.16 64.05 67.02 67.12 67.65 68.08 68.22 68.45 68.62 68.77
53.35 53.75 54.86 55.32 55.39 54.76 54.43 54.43 54.45 54.60 54.53 54.52 54.17 53.33 53.78 54.44 53.76 53.55 53.14 53.38 53.14 56.45 53.47 54.60 53.75 53.46 52.83 53.67 54.59 54.51 55.08 55.26 54.67 55.40 63.81 64.68 65.51 66.18 66.71 67.16 67.33 67.34 67.61
53.25 53.80 54.95 55.47 54.85 54.32 54.25 54.02 53.89 53.87 53.98 53.58 53.28 53.57 52.22 52.02 51.65 51.29 51.38 51.53 51.16 51.30 50.32 50.48 50.96 51.12 51.87 52.58 53.27 53.52 53.52 54.49 55.28 55.58 60.24 63.42 64.27 64.97 65.42 65.50 65.81 66.03 66.24
52.43 53.61 54.31 54.55 53.71 54.43 54.44 53.83 53.20 52.89 53.03 52.79 52.90 52.88 52.09 50.97 49.93 50.55 49.92 49.48 48.42 48.83 48.16 47.83 48.34 49.00 49.63 51.51 52.55 52.19 52.07 53.54 55.17 56.03 59.70 61.60 62.39 62.97 63.27 63.93 64.22 64.58 65.18
52.96 53.45 54.69 54.21 54.16 54.75 53.58 53.40 53.15 52.53 52.73 52.39 52.22 51.81 51.83 50.48 49.14 49.55 48.52 48.18 47.54 47.91 47.85 47.75 47.29 47.95 48.50 49.59 49.99 50.66 51.55 52.52 53.88 55.44 58.63 58.18 59.81 59.89 60.64 61.97 62.59 62.85 63.22
52.71 53.99 53.84 54.29 54.29 53.41 53.66 53.09 52.91 52.07 52.89 51.60 51.84 51.89 51.00 50.39 49.05 48.29 47.94 47.23 47.24 48.04 48.51 48.12 47.41 48.07 48.06 49.57 48.31 50.16 53.49 53.47 54.25 56.83 58.53 58.64 57.44 57.53 57.27 58.38 59.58 60.81 61.55
52.34 52.94 53.52 54.73 53.44 52.88 53.27 52.92 52.55 51.96 51.39 51.04 51.19 51.24 51.22 50.55 49.18 47.82 47.65 47.11 47.52 48.09 47.97 47.44 47.01 46.62 46.77 46.84 46.42 49.56 52.79 53.59 53.80 55.93 55.90 54.63 54.25 54.63 54.84 55.52 55.44 56.38 57.29
51.82 52.72 52.51 52.66 52.45 52.70 52.49 52.69 51.88 51.76 50.96 50.85 50.76 50.46 50.89 50.81 49.71 47.49 47.26 47.33 47.54 47.55 46.90 46.96 46.50 46.12 45.60 45.99 47.61 49.91 52.22 51.97 51.96 55.07 53.28 51.73 49.83 49.52 48.96 52.49 53.64 53.78 54.01
51.49 52.41 52.77 53.00 52.38 52.20 52.26 51.59 51.20 51.01 51.02 50.98 50.61 50.07 50.70 49.67 49.38 47.53 47.07 46.64 47.17 46.53 45.76 45.18 44.67 46.01 45.81 45.63 48.77 49.93 50.98 50.85 50.87 50.29 50.67 51.74 49.67 48.94 47.96 47.53 46.88 48.00 52.25
51.41 51.36 51.83 51.28 51.72 51.54 50.35 49.60 48.60 48.39 49.79 50.17 50.88 51.54 50.82 50.39 50.09 47.68 46.38 46.27 46.14 45.25 44.85 45.37 45.13 44.96 45.04 46.36 45.15 45.34 48.55 49.96 49.61 49.70 49.85 49.36 51.69 51.31 48.78 45.87 44.77 44.36 45.39
50.56 50.94 51.37 51.91 51.83 51.24 50.65 49.67 49.49 48.86 49.51 49.74 50.66 51.08 51.12 50.45 50.10 49.03 45.91 45.65 45.51 44.84 44.71 44.38 44.24 44.01 44.85 46.16 42.80 43.19 41.23 46.32 49.45 49.35 48.59 49.08 47.22 48.52 47.71 45.49 43.22 42.48 41.54
50.43 50.02 51.71 51.87 51.52 51.35 50.99 50.43 49.84 49.65 49.75 48.91 49.34 49.47 50.45 50.66 50.09 49.47 47.71 46.02 45.20 44.93 43.73 43.62 42.85 43.35 42.20 44.53 45.16 41.86 38.66 38.59 41.08 46.64 46.68 46.78 46.06 45.43 45.24 44.31 43.26 41.57 40.24
50.40 51.18 51.78 51.84 51.52 51.60 51.24 49.96 48.63 47.67 46.55 47.91 47.72 48.67 49.13 50.30 49.55 49.62 48.76 47.15 45.70 45.20 43.59 43.18 43.68 42.59 42.57 41.35 44.14 46.54 43.48 42.50 39.67 39.23 44.06 45.43 46.12 45.16 43.90 42.47 41.62 40.70 38.88
51.53 51.08 50.86 50.95 51.11 51.08 50.94 50.17 48.77 47.91 48.16 48.42 48.35 48.17 48.42 49.08 49.47 49.17 48.57 46.96 45.66 45.40 44.16 43.02 41.98 41.36 42.07 41.34 41.51 42.08 41.21 41.03 41.17 39.91 38.67 39.74 42.06 43.31 43.86 41.79 41.17 38.87 38.49
50.18 51.18 50.55 50.34 50.65 50.83 50.43 49.92 48.89 48.02 48.39 47.81 47.98 47.77 48.43 48.95 48.92 48.61 48.60 46.74 46.05 45.10 43.80 43.01 42.12 41.34 40.96 41.49 41.61 41.74 41.21 39.09 38.23 38.54 37.08 36.93 36.82 39.25 41.10 41.20 40.22 38.48 37.22
MSLP
1015.28 1015.62 1015.95 1016.20 1016.39 1016.54 1016.65 1016.76 1016.98 1017.11 1017.11 1017.09 1017.18 1017.18 1017.22 1017.25 1017.27 1017.24 1017.21 1017.17 1017.15 1017.11 1017.00 1016.86 1017.00 1017.05 1017.12 1017.12 1017.09 1017.06 1017.03 1017.04 1017.01 1016.93 1016.85 1016.75 1016.61 1016.50 1016.55 1016.59 1016.62 1016.54 1016.57
1014.73 1015.60 1016.12 1016.38 1016.62 1016.81 1016.95 1017.01 1017.12 1017.26 1017.31 1017.26 1017.27 1017.25 1017.25 1017.23 1017.24 1017.24 1017.28 1017.30 1017.25 1017.22 1017.16 1017.17 1017.15 1017.17 1017.21 1017.21 1017.24 1017.20 1017.14 1017.09 1017.04 1017.03 1016.98 1016.85 1016.77 1016.64 1016.48 1016.61 1016.68 1016.69 1016.63
1014.83 1015.70 1016.21 1016.57 1016.82 1017.06 1017.18 1017.23 1017.30 1017.44 1017.52 1017.50 1017.45 1017.38 1017.36 1017.37 1017.36 1017.34 1017.36 1017.34 1017.37 1017.33 1017.31 1017.28 1017.28 1017.23 1017.26 1017.28 1017.27 1017.22 1017.14 1017.07 1017.06 1017.03 1016.85 1016.65 1016.57 1016.60 1016.49 1016.54 1016.73 1016.72 1016.66
1014.70 1015.56 1016.27 1016.70 1016.96 1017.16 1017.35 1017.49 1017.58 1017.64 1017.76 1017.81 1017.78 1017.79 1017.76 1017.78 1017.78 1017.81 1017.80 1017.75 1017.74 1017.65 1017.55 1017.44 1017.33 1017.24 1017.24 1017.23 1017.17 1017.15 1017.10 1017.06 1017.04 1016.96 1016.79 1016.39 1016.12 1016.39 1016.47 1016.51 1016.68 1016.65 1016.56
1015.60 1016.09 1016.66 1016.93 1017.20 1017.51 1017.69 1017.76 1017.84 1017.92 1018.03 1018.12 1018.12 1018.12 1018.15 1018.15 1018.20 1018.16 1018.15 1018.13 1018.01 1017.93 1017.80 1017.70 1017.60 1017.42 1017.28 1017.15 1017.04 1016.97 1016.92 1016.91 1016.93 1016.90 1016.63 1016.28 1015.98 1016.19 1016.44 1016.46 1016.52 1016.59 1016.48
1016.33 1016.68 1017.04 1017.19 1017.49 1017.77 1018.00 1018.02 1018.18 1018.31 1018.39 1018.49 1018.49 1018.47 1018.50 1018.51 1018.48 1018.44 1018.43 1018.40 1018.22 1018.15 1018.02 1017.86 1017.74 1017.62 1017.41 1017.30 1017.09 1016.88 1016.78 1016.74 1016.79 1016.73 1016.42 1016.06 1015.86 1015.81 1016.14 1016.31 1016.38 1016.40 1016.37
1016.81 1017.21 1017.43 1017.65 1017.78 1018.00 1018.26 1018.36 1018.52 1018.63 1018.70 1018.80 1018.81 1018.79 1018.77 1018.77 1018.70 1018.68 1018.72 1018.61 1018.53 1018.41 1018.30 1018.04 1017.87 1017.73 1017.56 1017.38 1017.24 1017.06 1016.94 1016.83 1016.70 1016.55 1016.20 1015.84 1015.82 1015.81 1015.87 1016.04 1016.26 1016.31 1016.29
1017.04 1017.63 1017.79 1018.09 1018.31 1018.38 1018.57 1018.68 1018.76 1018.87 1018.95 1019.04 1019.09 1019.08 1019.02 1018.99 1018.96 1018.94 1018.96 1018.84 1018.71 1018.55 1018.46 1018.22 1018.02 1017.83 1017.64 1017.45 1017.29 1017.16 1017.03 1016.93 1016.71 1016.46 1016.07 1015.79 1015.70 1015.65 1015.74 1015.81 1016.04 1016.15 1016.13
1017.09 1017.65 1017.90 1018.27 1018.67 1018.90 1019.01 1019.10 1019.07 1019.15 1019.25 1019.31 1019.30 1019.26 1019.23 1019.13 1019.10 1019.14 1019.16 1019.08 1018.96 1018.79 1018.68 1018.44 1018.19 1017.94 1017.61 1017.40 1017.24 1017.08 1016.95 1016.84 1016.79 1016.40 1015.89 1015.46 1015.41 1015.39 1015.65 1015.73 1015.79 1015.84 1015.83
1017.50 1017.71 1017.90 1018.17 1018.42 1018.99 1019.26 1019.41 1019.44 1019.39 1019.44 1019.46 1019.38 1019.31 1019.31 1019.28 1019.14 1019.20 1019.36 1019.21 1019.16 1018.92 1018.77 1018.50 1018.23 1017.86 1017.55 1017.33 1017.10 1016.92 1016.70 1016.56 1016.43 1016.11 1015.70 1015.23 1015.12 1015.33 1015.59 1015.69 1015.69 1015.70 1015.70
1018.01 1018.21 1018.16 1018.25 1018.47 1018.93 1019.13 1019.54 1019.59 1019.51 1019.53 1019.52 1019.48 1019.27 1019.19 1019.18 1019.15 1019.16 1019.25 1019.19 1019.13 1018.95 1018.68 1018.49 1018.19 1017.82 1017.57 1017.29 1016.88 1016.87 1016.68 1016.54 1016.29 1015.92 1015.62 1015.29 1015.44 1015.51 1015.63 1015.59 1015.72 1015.65 1015.46
1018.55 1018.62 1018.59 1018.57 1018.78 1019.02 1018.85 1019.35 1019.41 1019.33 1019.45 1019.62 1019.60 1019.48 1019.31 1019.17 1019.21 1019.14 1019.14 1019.17 1019.06 1018.91 1018.52 1018.41 1018.09 1017.81 1017.63 1017.46 1017.22 1016.90 1016.78 1016.41 1016.09 1015.90 1016.11 1015.85 1015.82 1015.67 1015.77 1015.77 1015.73 1015.65 1015.55
1018.52 1018.72 1018.82 1018.85 1019.08 1019.24 1019.39 1019.42 1019.44 1019.48 1019.61 1019.82 1019.87 1019.75 1019.59 1019.50 1019.46 1019.41 1019.40 1019.36 1019.17 1018.96 1018.86 1018.68 1018.48 1018.18 1017.90 1017.65 1017.46 1017.22 1016.89 1016.66 1016.40 1016.35 1016.61 1016.32 1016.15 1016.06 1016.12 1016.02 1015.89 1015.79 1015.68
1018.71 1018.78 1018.78 1019.04 1019.36 1019.52 1019.56 1019.64 1019.74 1019.82 1019.90 1020.10 1020.12 1020.05 1020.05 1020.06 1019.98 1019.94 1019.76 1019.66 1019.57 1019.36 1019.25 1019.08 1018.84 1018.45 1018.11 1017.74 1017.48 1017.33 1017.11 1016.88 1016.59 1016.57 1016.87 1016.67 1016.52 1016.49 1016.45 1016.28 1016.12 1015.96 1015.75
1018.69 1018.73 1018.91 1019.12 1019.52 1019.66 1019.75 1019.82 1019.90 1019.95 1020.09 1020.21 1020.34 1020.29 1020.31 1020.34 1020.43 1020.29 1020.13 1020.04 1019.95 1019.74 1019.60 1019.43 1019.12 1018.81 1018.40 1017.96 1017.61 1017.39 1017.19 1017.01 1016.77 1016.73 1017.25 1017.22 1017.13 1017.07 1016.96 1016.77 1016.51 1016.31 1016.09
1018.43 1018.72 1019.00 1019.27 1019.57 1019.65 1019.95 1020.05 1020.10 1020.14 1020.27 1020.42 1020.59 1020.54 1020.49 1020.63 1020.70 1020.64 1020.53 1020.45 1020.23 1020.02 1019.88 1019.71 1019.47 1019.11 1018.65 1018.23 1017.93 1017.46 1017.20 1017.08 1016.91 1016.84 1017.57 1017.86 1017.84 1017.86 1017.89 1017.66 1017.35 1017.04 1016.70
1018.19 1018.63 1019.04 1019.23 1019.53 1019.87 1020.05 1020.10 1020.22 1020.30 1020.37 1020.58 1020.64 1020.65 1020.73 1020.86 1020.94 1020.83 1020.81 1020.72 1020.39 1020.25 1020.11 1019.92 1019.63 1019.30 1018.97 1018.49 1018.29 1017.66 1017.28 1017.17 1017.10 1017.41 1017.73 1018.09 1018.38 1018.37 1018.69 1018.51 1018.18 1017.87 1017.54
1018.10 1018.73 1019.08 1019.21 1019.65 1019.83 1020.08 1020.16 1020.25 1020.36 1020.46 1020.56 1020.66 1020.75 1020.96 1020.94 1020.98 1021.01 1020.96 1020.88 1020.58 1020.40 1020.34 1020.25 1020.07 1019.78 1019.39 1019.06 1018.60 1017.99 1017.74 1017.46 1017.67 1017.78 1018.03 1018.47 1018.64 1018.92 1019.06 1018.96 1018.92 1018.71 1018.43
1018.01 1018.66 1019.20 1019.35 1019.62 1019.85 1020.00 1020.24 1020.38 1020.35 1020.46 1020.53 1020.67 1020.81 1020.89 1020.95 1020.96 1021.10 1021.06 1020.88 1020.78 1020.64 1020.67 1020.57 1020.32 1020.04 1019.77 1019.47 1018.86 1018.29 1018.11 1018.18 1018.20 1018.20 1018.63 1018.93 1019.21 1019.31 1019.37 1019.18 1019.28 1019.21 1019.00
1018.01 1018.59 1019.18 1019.31 1019.45 1019.68 1020.05 1020.26 1020.33 1020.38 1020.39 1020.54 1020.65 1020.77 1020.76 1020.89 1020.92 1021.14 1021.14 1021.03 1020.93 1020.98 1021.03 1020.75 1020.52 1020.11 1019.93 1019.75 1019.27 1018.70 1018.39 1018.41 1018.39 1018.69 1018.82 1018.89 1019.13 1019.30 1019.47 1019.56 1019.62 1019.58 1019.28
1018.10 1018.66 1019.06 1019.29 1019.46 1019.78 1020.09 1020.34 1020.36 1020.56 1020.52 1020.56 1020.57 1020.64 1020.78 1020.67 1020.94 1021.20 1021.23 1021.20 1021.18 1021.30 1021.16 1020.99 1020.72 1020.53 1020.22 1019.89 1019.72 1019.17 1018.77 1018.65 1018.73 1018.69 1018.56 1018.67 1018.54 1018.91 1019.28 1019.70 1019.90 1019.98 1019.91
1018.20 1018.67 1018.97 1019.16 1019.44 1019.68 1019.86 1020.06 1020.28 1020.46 1020.45 1020.59 1020.73 1020.66 1020.46 1020.66 1020.91 1021.05 1021.10 1021.29 1021.26 1021.36 1021.21 1021.13 1021.02 1021.02 1020.57 1020.29 1020.42 1020.11 1019.71 1019.44 1019.08 1018.83 1018.73 1018.76 1018.92 1018.95 1019.24 1019.62 1019.90 1020.09 1020.17
1018.17 1018.58 1018.82 1018.98 1019.28 1019.63 1019.94 1020.19 1020.42 1020.50 1020.71 1020.93 1020.78 1020.54 1020.36 1020.57 1020.78 1020.92 1021.07 1021.19 1021.27 1021.21 1021.29 1021.23 1021.17 1021.28 1021.22 1020.76 1020.51 1020.69 1020.48 1020.42 1019.95 1019.30 1019.08 1018.92 1019.01 1019.19 1019.27 1019.50 1019.86 1020.16 1020.38
1017.91 1018.27 1018.55 1018.86 1019.29 1019.64 1019.94 1020.18 1020.38 1020.68 1020.91 1020.70 1020.42 1020.29 1020.35 1020.40 1020.59 1020.71 1020.87 1021.06 1021.14 1021.12 1021.18 1021.08 1021.02 1021.17 1021.22 1021.31 1020.84 1020.63 1020.61 1020.68 1020.65 1020.20 1019.46 1019.20 1019.07 1019.25 1019.33 1019.45 1019.84 1020.12 1020.33
1017.56 1018.13 1018.44 1018.86 1019.24 1019.52 1019.81 1020.01 1020.32 1020.71 1020.57 1020.27 1020.21 1020.32 1020.34 1020.20 1020.14 1020.26 1020.50 1020.73 1020.88 1020.90 1020.91 1020.87 1020.89 1021.02 1020.98 1021.20 1021.28 1021.01 1020.84 1020.62 1020.49 1020.68 1020.31 1019.79 1019.43 1019.36 1019.35 1019.50 1019.70 1020.10 1020.26
1017.40 1018.00 1018.41 1018.81 1019.22 1019.50 1019.73 1019.96 1020.23 1020.48 1020.45 1020.41 1020.43 1020.50 1020.29 1020.05 1019.88 1019.80 1019.94 1020.21 1020.36 1020.52 1020.65 1020.67 1020.69 1020.73 1020.75 1020.85 1020.91 1020.83 1020.83 1020.90 1020.77 1020.90 1020.87 1020.51 1020.31 1019.61 1019.47 1019.56 1019.62 1019.95 1020.20
Wind_Speed
11 11 12 12 12 12 11 11 10 9 8 8 8 8 8 7 7 7 7 7 7 8 10 4 6 7 7 7 7 7 7 6 6 6 5 3 2 3 4 7 10 8 8
16 13 13 13 12 11 11 10 9 8 7 7 7 6 6 6 6 6 6 6 7 7 8 8 6 6 6 6 6 6 6 5 4 4 6 7 6 3 4 3 6 5 6
16 13 12 13 12 11 10 9 9 8 9 11 11 11 12 13 13 12 10 8 8 8 8 9 9 8 5 5 6 6 6 5 5 6 8 6 5 10 4 3 1 4 3
12 12 11 12 12 13 13 13 12 11 11 11 12 11 12 13 14 14 14 13 13 13 14 14 12 9 8 7 6 7 7 6 5 6 6 7 4 10 3 3 3 5 4
14 13 12 15 15 14 13 13 13 12 12 12 12 12 13 13 12 13 13 12 12 12 12 12 12 13 14 11 9 8 9 8 6 7 7 7 1 5 2 2 4 8 11
13 13 13 15 15 14 13 13 13 12 12 11 12 12 11 11 11 11 11 11 11 11 11 12 12 12 11 12 12 11 11 9 6 6 7 5 4 7 5 1 5 7 8
13 10 11 15 15 14 13 13 12 11 11 11 10 10 10 10 10 11 12 12 12 12 12 12 12 12 12 12 12 12 12 10 5 6 7 6 2 6 5 1 5 8 8
12 10 11 13 14 13 12 11 11 10 10 10 10 9 9 10 11 11 12 12 12 12 12 13 13 13 13 13 12 12 11 10 8 7 8 6 3 5 5 3 4 7 9
9 8 9 8 11 13 12 10 10 10 10 9 8 7 5 6 8 11 10 12 12 13 13 13 13 13 13 13 13 12 10 10 6 6 9 5 2 5 4 3 6 9 10
7 7 6 7 7 7 6 9 9 8 7 6 4 0 0 2 4 9 9 9 9 11 10 11 11 12 12 13 13 11 10 10 7 7 8 5 6 7 7 8 10 11 11
6 5 6 6 6 6 7 5 6 5 4 4 3 4 4 1 5 4 2 3 5 9 10 9 11 13 12 13 10 10 11 4 6 4 3 11 11 10 10 10 11 11 11
6 5 5 6 5 4 3 6 4 3 3 4 6 6 4 4 3 3 3 4 8 7 11 8 13 10 7 5 4 6 3 6 5 6 4 14 14 13 12 11 10 9 10
7 5 6 6 4 5 4 3 2 3 3 3 6 6 5 4 4 4 3 4 4 7 4 6 6 4 6 5 4 5 5 5 4 4 7 15 16 15 14 14 13 13 11
7 6 7 6 5 4 2 3 3 3 3 3 4 6 5 3 5 5 3 4 4 4 6 5 4 6 7 7 5 5 6 5 3 3 5 13 15 14 10 9 9 10 11
7 6 7 6 5 3 4 3 2 3 4 4 4 5 5 4 4 4 4 4 4 5 4 5 5 5 6 6 6 6 5 6 4 3 4 14 17 15 14 13 13 13 13
8 7 6 6 5 4 4 3 3 4 3 4 4 4 6 5 4 4 4 4 5 4 5 5 5 5 5 5 6 7 4 5 5 4 6 8 17 17 16 16 15 14 14
7 7 7 7 5 5 4 2 3 1 3 3 2 4 4 4 5 4 4 4 5 4 6 5 5 5 5 5 6 6 5 4 4 10 8 5 6 17 14 16 16 17 18
9 7 6 6 4 4 4 2 2 2 2 2 2 3 3 4 4 4 4 4 5 4 4 5 4 4 5 5 5 5 4 5 8 9 9 7 7 5 9 12 14 16 16
8 8 6 6 6 5 5 3 2 2 1 2 1 3 2 2 4 3 3 3 5 4 4 4 4 3 4 5 6 4 3 5 6 6 7 7 6 4 3 8 8 13 15
8 8 7 5 5 5 4 2 2 2 1 1 1 3 2 2 3 3 3 4 4 4 4 4 4 4 2 3 6 5 2 3 4 4 3 4 5 5 5 6 5 6 15
6 7 8 6 5 4 2 2 2 2 2 1 1 2 1 2 3 3 2 3 3 4 3 4 3 5 3 5 4 5 2 3 3 4 2 1 3 4 7 5 4 4 5
6 7 6 7 7 3 2 1 2 2 2 2 1 1 0 1 1 3 1 3 3 2 5 4 4 4 3 4 2 2 3 3 3 2 3 2 5 4 5 5 6 5 5
8 8 7 7 7 4 3 3 2 2 2 2 3 2 3 4 3 2 3 3 3 2 2 2 3 4 3 3 5 1 4 2 4 1 1 2 4 3 4 5 5 5 5
8 8 7 7 6 5 5 3 3 3 2 3 2 1 1 4 5 4 4 4 4 2 3 2 1 1 1 3 3 2 1 2 1 4 3 2 3 4 5 4 5 5 5
8 7 6 7 6 5 6 4 3 3 3 2 1 2 4 5 6 6 6 5 5 3 4 3 2 2 1 1 2 2 2 2 3 3 4 3 3 2 3 4 4 4 5
6 7 6 7 5 5 5 5 5 4 3 2 3 3 4 4 4 6 7 6 5 5 4 4 3 3 3 3 2 3 2 2 2 1 2 3 4 4 1 3 4 4 3
Wind_Direction
118 119 118 116 112 108 103 96 88 82 78 73 65 61 56 55 54 51 45 40 32 19 9 43 40 36 28 26 25 23 24 23 24 20 4 348 2 83 45 7 8 54 36
127 117 118 114 111 107 103 99 93 83 70 63 58 51 43 37 34 36 35 27 19 10 7 8 22 17 13 12 8 4 1 360 356 343 323 304 256 230 126 39 7 16 23
110 123 115 112 112 109 104 98 89 77 65 61 57 55 53 48 44 39 32 23 14 8 1 356 351 354 346 340 340 336 335 332 329 324 304 273 234 212 158 96 345 336 343
119 120 115 115 112 98 92 84 81 74 67 60 57 53 53 49 46 43 38 33 27 20 14 10 3 343 323 315 306 303 307 309 305 299 290 280 296 185 149 103 338 305 295
81 89 93 95 94 92 90 86 80 74 69 63 59 56 52 48 44 41 35 30 27 20 16 12 7 2 5 347 309 298 292 285 284 286 274 278 128 103 125 19 330 331 328
95 91 90 96 97 91 86 82 77 73 69 64 59 56 51 47 42 37 31 21 17 8 4 1 359 356 359 355 345 341 319 309 298 273 273 279 211 193 172 319 306 304 321
106 100 91 93 94 90 85 82 78 74 68 63 57 53 48 40 36 32 27 20 14 8 358 354 348 342 340 341 339 340 337 341 299 281 288 291 330 180 167 217 296 299 301
108 106 95 88 88 87 83 81 77 72 65 59 53 49 47 44 39 34 32 23 16 9 0 358 351 342 334 328 326 328 331 334 319 295 272 273 271 214 202 200 274 289 292
106 126 123 115 105 89 83 79 79 73 66 60 52 48 56 65 65 50 32 20 15 8 2 360 354 344 334 322 313 308 309 308 300 280 284 265 316 292 230 257 272 285 277
86 89 103 137 137 121 101 93 88 88 88 82 75 76 309 255 93 73 37 18 5 3 353 353 346 341 331 320 302 292 283 289 272 259 263 251 247 282 317 323 328 313 293
81 71 80 79 91 103 125 137 128 138 152 167 217 291 299 164 51 17 105 347 328 328 329 315 328 322 318 311 327 275 286 284 281 280 12 55 38 28 7 338 342 320 315
117 103 85 65 60 57 79 152 168 128 111 56 29 6 10 21 6 334 288 291 309 291 351 330 352 341 4 340 334 337 305 338 341 334 47 43 27 19 1 349 344 344 348
132 110 101 80 43 74 39 358 56 54 51 62 37 7 2 20 14 13 20 2 0 10 350 353 344 346 344 336 351 336 342 340 338 8 39 45 37 25 0 357 357 355 355
136 130 112 116 88 48 54 48 67 53 66 47 36 22 12 22 20 358 14 7 7 356 357 347 337 345 339 339 333 339 341 334 350 34 42 54 49 35 18 10 11 9 7
134 130 122 119 101 96 71 52 56 73 52 58 45 26 25 29 16 359 358 17 10 0 354 343 338 345 332 337 352 333 337 329 356 28 65 64 59 49 32 20 23 21 21
139 133 133 116 115 93 96 79 49 54 71 66 57 30 36 23 7 8 4 8 9 6 349 347 339 340 335 338 337 329 351 345 3 21 101 68 66 54 29 21 22 19 18
136 134 137 125 139 125 107 88 98 108 88 86 101 69 40 49 2 4 2 16 359 358 350 347 339 352 343 344 337 329 359 2 358 66 89 77 72 60 43 33 28 27 23
122 138 145 126 139 131 120 87 87 55 93 91 69 92 47 47 28 6 13 13 349 356 354 346 349 347 337 3 325 318 19 35 49 61 58 61 46 47 50 46 37 34 30
137 135 141 149 169 153 130 109 71 96 335 115 146 104 78 80 42 11 7 7 344 354 355 349 340 343 340 352 321 337 29 56 54 61 68 69 63 56 46 27 57 43 35
144 143 158 164 155 129 121 141 187 156 266 90 39 79 44 29 65 17 353 0 1 353 351 345 348 335 329 345 323 333 76 83 79 71 86 122 115 88 61 45 31 3 21
141 151 160 159 155 133 175 188 199 202 178 203 155 104 292 52 34 338 352 349 4 353 328 350 348 343 334 349 354 343 304 124 157 167 160 115 70 114 88 62 54 29 10
162 167 168 167 166 190 151 116 78 62 40 88 354 255 231 347 282 283 346 321 329 345 341 0 13 337 326 7 351 283 353 333 356 152 100 93 72 62 85 83 77 50 22
175 181 179 183 164 174 146 95 62 36 5 293 248 232 218 208 247 235 288 282 301 312 313 335 1 5 352 323 359 91 358 335 334 280 167 129 117 107 103 93 78 70 41
186 174 178 172 163 169 154 169 187 192 216 230 176 214 238 217 224 233 227 261 267 276 292 279 10 329 351 320 330 30 318 210 284 325 313 293 184 145 125 100 83 79 63
168 171 172 161 170 177 166 185 189 223 232 224 250 263 256 246 216 209 216 230 244 244 248 233 273 295 320 268 281 325 319 310 257 232 279 309 356 96 146 129 116 95 65
152 150 160 164 182 171 166 192 212 238 281 314 299 292 275 257 238 210 207 211 228 242 235 233 238 233 249 261 267 270 229 224 295 319 326 325 276 299 130 144 120 115 106